Preview of NWS' New Version of Forecast
This preview is not operational and should not be used for support decisions.

Regional Weather Roundup (RWR)

Issued by National Weather Service (NWS)

                            
000
ASUS44 KMEG 161100
RWRTN 
TENNESSEE HOURLY STATE WEATHER ROUNDUP
NATIONAL WEATHER SERVICE MEMPHIS TN
600 AM CDT SUN JUN 16 2019

TNZ002-004-019-021-049-052-054-088>092-161200-
WEST TENNESSEE
  
CITY           SKY/WX    TMP DP  RH WIND       PRES   REMARKS
MEMPHIS INTL   MOCLDY    76  72  87 SW12      29.93R                  
NWS MEMPHIS      N/A     76 N/A N/A MISG        N/A                   
JACKSON        FAIR      74  70  87 S7        29.94R                  
DYERSBURG      FAIR      76  71  85 VRB3      29.92R                  
$$

TNZ008-025-027-028-033-062-065-066-161200-
NORTH MIDDLE TENNESSEE
  
CITY           SKY/WX    TMP DP  RH WIND       PRES   REMARKS
NASHVILLE      FAIR      75  63  66 S13       29.97R                  
CLARKSVILLE    FAIR      74  66  76 SW9       29.93R                  
SMYRNA         MOCLDY    73  65  75 S6        29.99R                  
CROSSVILLE     MOCLDY    67  60  78 VRB3      30.07R                  
$$

TNZ061-075-076-078-094-096-097-161200-
SOUTH MIDDLE TENNESSEE
  
CITY           SKY/WX    TMP DP  RH WIND       PRES   REMARKS
$$

TNZ017-018-042-046-047-161200-
NORTHEAST TENNESSEE
  
CITY           SKY/WX    TMP DP  RH WIND       PRES   REMARKS
TRI CITIES     MOCLDY    60  58  92 CALM      30.06R                  
$$

TNZ012-013-036-069-073-074-161200-
CENTRAL EAST TENNESSEE
  
CITY           SKY/WX    TMP DP  RH WIND       PRES   REMARKS
KNOXVILLE      FAIR      70  63  78 W8        30.04R                  
OAK RIDGE      MOCLDY    71  62  73 CALM      30.05R                  
$$

TNZ083-085-099-161200-
SOUTHEAST TENNESSEE
  
CITY           SKY/WX    TMP DP  RH WIND       PRES   REMARKS
CHATTANOOGA    MOCLDY    68  65  90 E3        30.05R                  
$$

SKY/WX REPORTED AS FAIR MEANS FEW OR NO CLOUDS BELOW
12 THOUSAND FEET.